| time (UTC) | temp F | wind direction | speed knots | gust knots | rain 1hr in | rain 24hr in | rain mn in | humidity % | barometer mb |
| 20260507183045 | 65 | 192 | 3.5 | 10.4 | 0.00 | 0.16 | 0.12 | 44 | 1007.0 |
| 20260507181539 | 65 | 248 | 2.6 | 15.6 | 0.00 | 0.16 | 0.12 | 42 | 1007.1 |
| 20260507180035 | 64 | 206 | 5.2 | 10.4 | 0.00 | 0.16 | 0.12 | 43 | 1007.3 |
| 20260507174535 | 63 | 109 | 5.2 | 12.2 | 0.00 | 0.16 | 0.12 | 43 | 1007.4 |
| 20260507173034 | 63 | 217 | 5.2 | 17.4 | 0.00 | 0.16 | 0.12 | 45 | 1007.5 |
| 20260507171531 | 63 | 173 | 4.3 | 16.5 | 0.00 | 0.16 | 0.12 | 47 | 1007.4 |
| 20260507170028 | 63 | 250 | 6.1 | 16.5 | 0.00 | 0.16 | 0.12 | 48 | 1007.6 |
| 20260507164525 | 62 | 137 | 5.2 | 11.3 | 0.00 | 0.16 | 0.12 | 53 | 1007.7 |
| 20260507163023 | 61 | 218 | 5.2 | 12.2 | 0.00 | 0.16 | 0.12 | 55 | 1007.9 |
| 20260507161521 | 61 | 209 | 3.5 | 10.4 | 0.00 | 0.16 | 0.12 | 58 | 1008.1 |
| 20260507160029 | 61 | 160 | 6.1 | 13.0 | 0.00 | 0.16 | 0.12 | 57 | 1008.1 |
| 20260507154518 | 61 | 22 | 0.9 | 9.6 | 0.00 | 0.16 | 0.12 | 61 | 1008.2 |
| 20260507153016 | 59 | 136 | 4.3 | 11.3 | 0.00 | 0.16 | 0.12 | 63 | 1008.4 |
| 20260507151514 | 60 | 159 | 4.3 | 9.6 | 0.00 | 0.16 | 0.12 | 64 | 1008.5 |
| 20260507150015 | 59 | 128 | 5.2 | 11.3 | 0.00 | 0.16 | 0.12 | 65 | 1008.6 |
| 20260507144513 | 58 | 268 | 5.2 | 9.6 | 0.00 | 0.16 | 0.12 | 66 | 1008.9 |
| 20260507143029 | 58 | 292 | 2.6 | 7.8 | 0.00 | 0.16 | 0.12 | 67 | 1009.0 |
| 20260507141511 | 57 | 290 | 2.6 | 7.0 | 0.00 | 0.16 | 0.12 | 68 | 1009.1 |
| 20260507140010 | 57 | 283 | 2.6 | 9.6 | 0.00 | 0.16 | 0.12 | 69 | 1009.1 |
| 20260507134509 | 56 | 295 | 1.7 | 7.0 | 0.00 | 0.16 | 0.12 | 72 | 1009.0 |
| 20260507133007 | 55 | 274 | 1.7 | 9.6 | 0.00 | 0.16 | 0.12 | 75 | 1009.2 |
| 20260507131510 | 54 | 256 | 1.7 | 8.7 | 0.00 | 0.16 | 0.12 | 78 | 1009.4 |
| 20260507130014 | 53 | 215 | 3.5 | 11.3 | 0.00 | 0.16 | 0.12 | 81 | 1009.4 |
| 20260507124504 | 51 | 250 | 4.3 | 8.7 | 0.00 | 0.16 | 0.12 | 83 | 1009.7 |
| 20260507123004 | 50 | 197 | 3.5 | 9.6 | 0.00 | 0.16 | 0.12 | 87 | 1009.6 |
| 20260507121502 | 49 | 189 | 3.5 | 9.6 | 0.01 | 0.16 | 0.12 | 92 | 1009.5 |
| 20260507120000 | 49 | 215 | 2.6 | 5.2 | 0.01 | 0.16 | 0.12 | 93 | 1009.3 |
| 20260507114601 | 49 | 194 | 4.3 | 7.8 | 0.01 | 0.16 | 0.12 | 93 | 1009.4 |
| 20260507113057 | 49 | 202 | 1.7 | 4.3 | 0.01 | 0.16 | 0.12 | 93 | 1009.4 |
| 20260507111555 | 49 | 205 | 0.0 | 1.7 | 0.00 | 0.15 | 0.11 | 93 | 1009.3 |
| 20260507110056 | 48 | 205 | 0.0 | 1.7 | 0.00 | 0.15 | 0.11 | 92 | 1009.0 |
| 20260507104559 | 48 | 205 | 0.0 | 1.7 | 0.01 | 0.15 | 0.11 | 91 | 1009.1 |
| 20260507103052 | 48 | 205 | 0.9 | 4.3 | 0.03 | 0.15 | 0.11 | 90 | 1009.4 |
| 20260507101550 | 48 | 217 | 0.0 | 0.0 | 0.04 | 0.15 | 0.11 | 90 | 1008.8 |
| 20260507100056 | 48 | 217 | 0.9 | 4.3 | 0.07 | 0.15 | 0.11 | 89 | 1008.9 |
| 20260507094549 | 48 | 202 | 2.6 | 6.1 | 0.07 | 0.14 | 0.10 | 89 | 1008.5 |
| 20260507093045 | 49 | 193 | 0.9 | 7.0 | 0.05 | 0.12 | 0.08 | 88 | 1008.5 |
| 20260507091542 | 49 | 196 | 0.9 | 5.2 | 0.05 | 0.11 | 0.07 | 88 | 1008.5 |
| 20260507090044 | 50 | 236 | 0.0 | 7.0 | 0.03 | 0.08 | 0.04 | 87 | 1008.8 |
| 20260507084543 | 50 | 189 | 0.9 | 6.1 | 0.02 | 0.07 | 0.03 | 87 | 1008.7 |
| 20260507083035 | 51 | 202 | 0.0 | 5.2 | 0.03 | 0.07 | 0.03 | 86 | 1008.3 |
| 20260507081531 | 52 | 179 | 1.7 | 6.1 | 0.02 | 0.06 | 0.02 | 85 | 1008.2 |
| 20260507080029 | 52 | 198 | 3.5 | 9.6 | 0.01 | 0.05 | 0.01 | 84 | 1008.6 |
| 20260507074525 | 53 | 178 | 1.7 | 7.8 | 0.01 | 0.05 | 0.01 | 83 | 1008.1 |
| 20260507073021 | 54 | 196 | 2.6 | 9.6 | 0.00 | 0.04 | 0.00 | 82 | 1008.1 |
| 20260507071523 | 55 | 213 | 1.7 | 8.7 | 0.00 | 0.04 | 0.00 | 82 | 1007.3 |
| 20260507070015 | 55 | 185 | 2.6 | 9.6 | 0.00 | 0.04 | 0.00 | 82 | 1007.5 |
| 20260507064639 | 55 | 263 | 2.6 | 7.8 | 0.00 | 0.04 | 0.00 | 83 | 1007.4 |
| 20260507063010 | 56 | 200 | 2.6 | 11.3 | 0.00 | 0.04 | 0.00 | 83 | 1007.6 |
| 20260507061508 | 56 | 175 | 3.5 | 10.4 | 0.00 | 0.04 | 0.00 | 83 | 1007.4 |
| 20260507060005 | 57 | 163 | 1.7 | 8.7 | 0.00 | 0.04 | 0.00 | 82 | 1007.6 |
| 20260507054504 | 57 | 167 | 3.5 | 10.4 | 0.00 | 0.04 | 0.00 | 83 | 1007.7 |
| 20260507053001 | 58 | 205 | 2.6 | 7.0 | 0.00 | 0.04 | 0.00 | 84 | 1007.9 |
| 20260507051608 | 58 | 182 | 1.7 | 6.1 | 0.00 | 0.04 | 0.00 | 84 | 1007.6 |
| 20260507050057 | 58 | 200 | 0.9 | 7.8 | 0.00 | 0.04 | 0.00 | 84 | 1007.5 |
| 20260507044558 | 59 | 191 | 2.6 | 12.2 | 0.00 | 0.04 | 0.00 | 86 | 1007.6 |
| 20260507043055 | 59 | 212 | 3.5 | 7.8 | 0.00 | 0.04 | 0.00 | 91 | 1007.3 |
| 20260507041552 | 59 | 180 | 0.0 | 6.1 | 0.00 | 0.04 | 0.00 | 93 | 1007.3 |
| 20260507040047 | 59 | 157 | 1.7 | 7.8 | 0.00 | 0.04 | 0.00 | 93 | 1007.6 |
| 20260507034546 | 59 | 153 | 3.5 | 8.7 | 0.00 | 0.04 | 0.04 | 93 | 1007.6 |
| 20260507033046 | 59 | 155 | 3.5 | 7.0 | 0.00 | 0.04 | 0.04 | 93 | 1007.2 |
| 20260507031545 | 59 | 117 | 3.5 | 9.6 | 0.00 | 0.04 | 0.04 | 92 | 1007.2 |
| 20260507030045 | 59 | 157 | 4.3 | 8.7 | 0.00 | 0.04 | 0.04 | 93 | 1007.0 |
| 20260507024544 | 59 | 150 | 3.5 | 7.0 | 0.00 | 0.04 | 0.04 | 93 | 1006.9 |
| 20260507023044 | 59 | 155 | 2.6 | 6.1 | 0.00 | 0.04 | 0.04 | 93 | 1007.2 |
| 20260507021544 | 59 | 159 | 3.5 | 7.0 | 0.00 | 0.04 | 0.04 | 93 | 1007.1 |
| 20260507020053 | 58 | 191 | 2.6 | 7.0 | 0.00 | 0.04 | 0.04 | 93 | 1007.1 |
| 20260507014546 | 58 | 127 | 2.6 | 7.0 | 0.00 | 0.04 | 0.04 | 93 | 1007.1 |
| 20260507013042 | 58 | 99 | 4.3 | 11.3 | 0.00 | 0.04 | 0.04 | 93 | 1007.3 |
| 20260507011541 | 58 | 150 | 3.5 | 9.6 | 0.00 | 0.04 | 0.04 | 93 | 1007.4 |
| 20260507010055 | 58 | 128 | 4.3 | 8.7 | 0.00 | 0.04 | 0.04 | 93 | 1007.6 |
| 20260507004537 | 58 | 111 | 4.3 | 9.6 | 0.00 | 0.04 | 0.04 | 93 | 1007.7 |
| 20260507003036 | 58 | 90 | 4.3 | 7.8 | 0.01 | 0.04 | 0.04 | 93 | 1007.5 |
| 20260507001535 | 58 | 124 | 4.3 | 13.0 | 0.02 | 0.04 | 0.04 | 92 | 1007.5 |
| 20260507000034 | 58 | 82 | 4.3 | 9.6 | 0.02 | 0.04 | 0.04 | 92 | 1007.3 |
| 20260506234532 | 58 | 151 | 4.3 | 10.4 | 0.02 | 0.04 | 0.04 | 91 | 1007.4 |
| 20260506233028 | 59 | 108 | 4.3 | 10.4 | 0.01 | 0.03 | 0.03 | 90 | 1007.2 |
| 20260506231526 | 59 | 98 | 5.2 | 10.4 | 0.00 | 0.02 | 0.02 | 89 | 1007.2 |
| 20260506230028 | 60 | 156 | 3.5 | 9.6 | 0.00 | 0.02 | 0.02 | 89 | 1007.2 |
| 20260506224525 | 60 | 150 | 4.3 | 9.6 | 0.00 | 0.02 | 0.02 | 89 | 1007.2 |
| 20260506223023 | 60 | 76 | 5.2 | 13.9 | 0.00 | 0.02 | 0.02 | 90 | 1007.3 |
| 20260506221520 | 60 | 108 | 4.3 | 9.6 | 0.00 | 0.02 | 0.02 | 90 | 1007.6 |
| 20260506220028 | 60 | 157 | 3.5 | 12.2 | 0.00 | 0.02 | 0.02 | 89 | 1007.6 |
| 20260506214617 | 61 | 100 | 5.2 | 10.4 | 0.00 | 0.02 | 0.02 | 88 | 1007.8 |
| 20260506213016 | 61 | 104 | 7.0 | 18.2 | 0.01 | 0.02 | 0.02 | 86 | 1008.1 |
| 20260506211513 | 61 | 159 | 7.0 | 18.2 | 0.01 | 0.02 | 0.02 | 86 | 1007.9 |
| 20260506210012 | 61 | 92 | 8.7 | 20.9 | 0.01 | 0.02 | 0.02 | 86 | 1008.0 |
| 20260506204511 | 61 | 135 | 6.1 | 12.2 | 0.01 | 0.02 | 0.02 | 86 | 1008.1 |
| 20260506203009 | 62 | 137 | 6.1 | 13.9 | 0.00 | 0.01 | 0.01 | 85 | 1008.1 |
| 20260506201524 | 62 | 89 | 6.1 | 13.9 | 0.01 | 0.01 | 0.01 | 85 | 1008.0 |
| 20260506200006 | 63 | 96 | 5.2 | 13.9 | 0.01 | 0.01 | 0.01 | 84 | 1007.9 |
| 20260506194507 | 63 | 109 | 7.0 | 15.6 | 0.01 | 0.01 | 0.01 | 83 | 1008.0 |
| 20260506193004 | 64 | 105 | 4.3 | 13.9 | 0.01 | 0.01 | 0.01 | 81 | 1008.2 |
| 20260506191503 | 66 | 104 | 3.5 | 10.4 | 0.00 | 0.00 | 0.00 | 78 | 1008.1 |
| 20260506190002 | 68 | 113 | 7.0 | 17.4 | 0.00 | 0.00 | 0.00 | 72 | 1008.0 |
| 20260506184501 | 69 | 154 | 6.1 | 13.9 | 0.00 | 0.00 | 0.00 | 70 | 1008.3 |